Aérodrome :
LOGIN :

S'inscrire | Disclaimer

   EN    FR    IT 

 










Légende :    VFR   VFR Marginal   IFR   IFR Intensif   IFR Très Intensif
Visi : 
Plafond : 
>= 8 km
>= 3000ft
5 à 8 km
1000 à 3000 ft
1500m à 5 km
500 à 1000 ft
800 à 1500m
200 à 500 ft
< 800m
< 200 ft
Symboles :   Orages  Brouillard  Fortes neiges  Fortes précipitations  Vent > 20 kt
SIGMETs :   Divers  Orages  Givrage  Turbulence  Onde Orograph.  Cendres Volcan.







- Altitude de l'aérodrome : 404 ft
- Code IATA : WRO


EPWR - Wroclaw

DERNIER METAR :
  • 241030Z 33007KT 300V030 9999 FEW046 17/07 Q1015

METARs EXPIRÉS :
  • 241000Z 34007KT 280V020 9999 FEW040 17/07 Q1015
  • 240930Z 36006KT 330V030 CAVOK 17/07 Q1016
  • 240900Z 33006KT 280V010 CAVOK 16/07 Q1016
  • 240830Z 31006KT 260V360 CAVOK 15/08 Q1016
  • 240800Z 30006KT 240V340 CAVOK 15/09 Q1016

TAF TAF EPWR
Valide du 24 à 09h jusqu'au 25 à 09h UTC


240830Z 2409/2509 29006KT CAVOK
Pas de NOTAMs connus pour ce terrain.



MET'MAP, la Météo Aéronautique d'un coup d'oeil ! - Copyright ORBIFLY Décembre 2007 - Disclaimer

ORBIFLY MET'MAP TEAM :

Programmation & Développement : Alexandra Zaïnal
Conception & Développement : Baudouin d'Aumeries
Co-Programmation & Développement : Marc-Olivier Méhu
Soutien technique & logistique : Manuel Goepfert

Contact : metmap@orbifly.com




SOURCES & CREDITS :

   NOAA